Regional Weather Roundup
Issued by NWS

Home | Current Version | Previous Version | Graphics & Text | Print | Product List | Glossary On
Versions: 1 2 3 4 5 6 7 8 9 10 11 12 13 14 15 16 17 18 19 20 21 22 23 24 25 26 27 28 29 30 31 32 33 34 35 36 37 38 39 40 41 42 43 44 45 46 47 48 49 50
000
ASUS43 KLOT 022008
RWRIL

ILLINOIS REGIONAL WEATHER ROUNDUP
NATIONAL WEATHER SERVICE CHICAGO/ROMEOVILLE IL
300 PM CDT TUE JUN 02 2015

NOTE: "FAIR" INDICATES FEW OR NO CLOUDS BELOW 12,000 FEET WITH NO
SIGNIFICANT WEATHER AND/OR OBSTRUCTIONS TO VISIBILITY.

* THESE STATIONS ARE NOT UNDER NWS QUALITY CONTROL. THEY ALSO MAY NOT
  REPORT WEATHER SUCH AS PRECIPITATION OR FOG.

ILZ001-002-007-009-015-016-024-022100-
NORTHWEST ILLINOIS

CITY           SKY/WX    TMP DP  RH WIND       PRES   REMARKS
MOLINE         SUNNY     73  49  42 VRB3      30.07F
STERLING*      SUNNY     73  48  40 SE6       30.09F
SAVANNA*       SUNNY     72  47  40 W3        30.09S
$$

ILZ003-004-008-010-011-017-018-022100-
NORTH CENTRAL ILLINOIS

CITY           SKY/WX    TMP DP  RH WIND       PRES   REMARKS
ROCKFORD       MOSUNNY   73  44  35 S12       30.11F
FREEPORT*      SUNNY     70  45  40 S6        30.11F
ROCHELLE*      SUNNY     72  46  39 SE5       30.10F
DE KALB*       SUNNY     69  48  46 E9        30.11F
PERU*          SUNNY     72  45  36 SE8G17    30.10F
$$

ILZ005-006-012>014-019>023-022100-
NORTHEAST ILLINOIS

CITY           SKY/WX    TMP DP  RH WIND       PRES   REMARKS
CHICAGO-OHARE  MOSUNNY   68  40  35 E8        30.11F
CHICAGO-MIDWAY MOSUNNY   70  48  45 SE5       30.11F
AURORA         SUNNY     73  47  39 SE12      30.10F
LANSING*       SUNNY     69  48  48 E6        30.12F
JOLIET*        SUNNY     73  49  44 E8        30.10F
WAUKEGAN       SUNNY     63  48  58 E9        30.14S
DUPAGE AIRPORT SUNNY     71  47  42 E9        30.10F
KANKAKEE*      SUNNY     70  51  50 E9        30.11F
WHEELING       SUNNY     67  46  47 VRB7      30.14F
MORRIS*        SUNNY     73  44  36 E7G20     30.09F
ROMEOVILLE*    SUNNY     71  46  40 E6        30.10F
NORTHERLY ISL    N/A     59  50  72 NE8         N/A
$$

LMZ740>746-022100-
SOUTHERN LAKE MICHIGAN

STATION/POSITION SKY/WX   TEMP    WIND        PRES    VSBY  WAVE
                          AIR SEA DIR/SP/G                  HT/PER
                          (F)     (DEG/KT/KT) (MB)    (MI)  (FT/S)
SOUTHERN BUOY              47 40  280/  2/  4 1021.4F         1
HARRISON CRIB              56      60/  6/  6   N/A
BURNHAM HARBOR             60      20/  5/  7   N/A
CALUMET HARBOR             61      20/  6/  8   N/A
BURNS HARBOR                       20/  8/ 10 1021.0F
MICHIGAN CITY              55     350/  9/ 10   N/A
MICHIGAN CITY 6N           53 56   30/  8/ 10   N/A           1/ 2
ST. JOSEPH                 54 56  360/  6/  8   N/A           1
$$

ILZ025>027-034>036-040-047-049-050-058-095>099-022100-
WEST-CENTRAL ILLINOIS

CITY           SKY/WX    TMP DP  RH WIND       PRES   REMARKS
QUINCY         PTSUNNY   71  53  52 SE7       30.07F
GALESBURG*     SUNNY     71  52  51 SE7       30.09F
MACOMB*        MOSUNNY   71  52  50 SE6       30.10F
JACKSONVILLE*  MOSUNNY   73  53  50 E6        30.08F
PITTSFIELD*    PTSUNNY   72  56  58 E6        30.09F
$$

ILZ028>032-037-038-041>044-048-051>054-059>061-022100-
CENTRAL ILLINOIS

CITY           SKY/WX    TMP DP  RH WIND       PRES   REMARKS
PONTIAC        SUNNY     72  50  46 SE10      30.11F
BLOOMINGTON    SUNNY     71  52  51 VRB6      30.11F
DECATUR        MOSUNNY   72  54  53 E6        30.09S
PEORIA         SUNNY     74  49  41 E9        30.09F
LACON*         SUNNY     72  47  40 E7        30.08F
LINCOLN*       SUNNY     72  52  48 E5        30.07F
SPRINGFIELD    SUNNY     73  53  49 S6        30.09F
TAYLORVILLE    MOSUNNY   70  55  60 SE5       30.08F
$$

ILZ033-039-045-046-055>057-062-063-022100-
EAST-CENTRAL ILLINOIS

CITY           SKY/WX    TMP DP  RH WIND       PRES   REMARKS
CHAMPAIGN      SUNNY     71  53  52 E7        30.09F
DANVILLE*      MOSUNNY   70  53  56 E6        30.07F
RANTOUL*       SUNNY     73  51  46 E10       30.09F
MATTOON        MOSUNNY   70  55  59 E6        30.07F
PARIS*         SUNNY     72  55  56 E8        30.09S
$$

ILZ079-100>102-022100-
SOUTHWEST ILLINOIS

CITY           SKY/WX    TMP DP  RH WIND       PRES   REMARKS
BELLEVILLE     CLOUDY    68  59  72 VRB6      30.08F
CAHOKIA*       CLOUDY    72  56  57 VRB5      30.07F
SPARTA*        CLOUDY    64  57  78 E3        30.10F
$$

ILZ064>066-069>071-074>076-080>082-084>086-088>090-092>094-022100-
SOUTH-CENTRAL ILLINOIS

CITY           SKY/WX    TMP DP  RH WIND       PRES   REMARKS
CARBONDALE     CLOUDY    64  55  72 CALM      30.09F
CAIRO*         CLOUDY    65  57  77 E5        30.08S
EFFINGHAM*     MOSUNNY   69  54  58 SE6       30.09F
MARION         CLOUDY    64  57  77 MISG      30.09F
MT. VERNON     CLOUDY    64  54  68 CALM      30.10S
CENTRALIA*     CLOUDY    73  53  49 NE3       30.09F
SALEM*         CLOUDY    65  55  70 CALM      30.10S
$$

ILZ067-068-072-073-078-083-087-091-022100-
SOUTHEAST ILLINOIS

CITY           SKY/WX    TMP DP  RH WIND       PRES   REMARKS
LAWRENCEVILLE  PTSUNNY   69  56  62 CALM      30.08F
FLORA*         SUNNY     64  55  72 E6        30.10F
FAIRFIELD*     CLOUDY    64  55  74 CALM      30.08F
HARRISBURG*    CLOUDY    64  56  76 NE3       30.09F
ROBINSON*      PTSUNNY   71  55  58 CALM      30.09S
CARMI*         CLOUDY    63  52  67 N6        30.08F
$$

ABBREVIATIONS USED IN REMARKS
   TC - TEMPERATURE IN CELSIUS
  WCI - WIND CHILL INDEX
   HX - HEAT INDEX
  VSB - VISIBILITY
$$




USA.gov is the U.S. government's official web portal to all federal, state and local government web resources and services.